Weather History for Slidell, LA

Change the Weather History Date:

Saturday, August 10, 2013

  Actual Average (KNEW) Record (KNEW)
Temperature  
Mean Temperature 83 °F 83 °F  
Max Temperature 93 °F 92 °F 97 °F (2000)
Min Temperature 75 °F 75 °F 62 °F (1976)
Degree Days  
Heating Degree Days 0 0  
Month to date heating degree days 0  
Since 1 June heating degree days 0  
Since 1 July heating degree days 0  
Cooling Degree Days 18 18  
Month to date cooling degree days 180  
Year to date cooling degree days 1860  
Since 1 June cooling degree days 1241  
Growing Degree Days 33 (Base 50)    
Moisture  
Dew Point 74 °F    
Average Humidity 78    
Maximum Humidity 94    
Minimum Humidity 52    
Precipitation  
Precipitation 0.04 in 0.18 in 1.97 in (1981)
Month to date precipitation 1.95  
Year to date precipitation 40.18  
Snow  
Snow 0.00 in - - ()
Month to date snowfall  
Since 1 June snowfall  
Since 1 July snowfall  
Snow Depth -    
Sea Level Pressure  
Sea Level Pressure 30.04 in    
Wind  
Wind Speed 3 mph (East)    
Max Wind Speed 12 mph    
Max Gust Speed -    
Visibility 10 miles    
Events Rain , Thunderstorm    
T = Trace of Precipitation, MM = Missing Value Source: NWS Daily Summary

Daily Weather History Graph

Daily Weather History Graph

Search for Another Location

Airport:

Trip Planner

Search our weather history database for the weather conditions in past years. The results will help you decide how hot, cold, wet, or windy it might be!

Date:

Astronomy

Aug. 10, 2013 Rise Set
Actual Time 6:23 AM CDT 7:45 PM CDT
Civil Twilight 5:57 AM CDT 8:10 PM CDT
Nautical Twilight 5:27 AM CDT 8:41 PM CDT
Astronomical Twilight 4:55 AM CDT 9:12 PM CDT
Moon 9:49 AM CDT (8/10) 9:49 PM CDT (8/10)
Length of Visible Light 14h 13m
Length of Day
13h 22m
Waxing Crescent, 14% of the Moon is Illuminated
Aug 10
Waxing Crescent
Aug 14
First Quarter
Aug 20
Full
Aug 28
Last Quarter
Sep 5
New

Hourly Weather History & Observations

Time (CDT) Temp. Heat Index Dew Point Humidity Pressure Visibility Wind Dir Wind Speed Gust Speed Precip Events Conditions
12:53 AM 79.0 °F - 75.9 °F 90% 30.01 in 10.0 mi Calm Calm - N/A   Partly Cloudy
1:53 AM 77.0 °F - 75.0 °F 94% 30.01 in 10.0 mi North 5.8 mph - N/A   Clear
2:53 AM 75.9 °F - 73.9 °F 94% 30.01 in 10.0 mi Calm Calm - N/A   Clear
3:53 AM 75.9 °F - 73.9 °F 94% 30.01 in 10.0 mi Calm Calm - N/A   Partly Cloudy
4:53 AM 75.9 °F - 73.9 °F 94% 30.02 in 10.0 mi Calm Calm - N/A   Partly Cloudy
5:53 AM 75.0 °F - 73.0 °F 94% 30.02 in 10.0 mi North 3.5 mph - N/A   Clear
6:53 AM 75.9 °F - 73.9 °F 94% 30.02 in 10.0 mi NE 3.5 mph - N/A   Clear
7:53 AM 80.1 °F 85.4 °F 75.9 °F 87% 30.04 in 10.0 mi East 4.6 mph - N/A   Partly Cloudy
8:53 AM 84.9 °F 95.3 °F 77.0 °F 77% 30.05 in 10.0 mi Calm Calm - N/A   Clear
9:53 AM 87.1 °F 95.4 °F 73.9 °F 65% 30.06 in 10.0 mi SSE 5.8 mph - N/A   Clear
10:53 AM 88.0 °F 95.6 °F 73.0 °F 61% 30.08 in 10.0 mi SE 5.8 mph - N/A   Scattered Clouds
11:53 AM 89.1 °F 97.0 °F 73.0 °F 59% 30.08 in 10.0 mi SE 6.9 mph - 0.00 in Rain Light Rain
12:53 PM 88.0 °F 96.5 °F 73.9 °F 63% 30.06 in 10.0 mi NNW 3.5 mph - 0.00 in   Mostly Cloudy
1:53 PM 89.1 °F 97.0 °F 73.0 °F 59% 30.03 in 10.0 mi ESE 6.9 mph - N/A   Mostly Cloudy
2:43 PM 91.4 °F 98.4 °F 71.6 °F 52% 30.02 in 10.0 mi SSE 10.4 mph - N/A Thunderstorm Partly Cloudy
2:53 PM 91.0 °F 98.2 °F 72.0 °F 53% 30.03 in 10.0 mi SSE 11.5 mph - N/A Thunderstorm Mostly Cloudy
3:16 PM 87.8 °F 93.8 °F 71.6 °F 58% 30.03 in 10.0 mi ESE 5.8 mph - N/A Thunderstorm Scattered Clouds
3:37 PM 82.4 °F 88.2 °F 73.4 °F 74% 30.04 in 10.0 mi NNW 9.2 mph - N/A   Mostly Cloudy
3:53 PM 80.1 °F 84.5 °F 73.9 °F 81% 30.05 in 10.0 mi North 8.1 mph - 0.00 in Rain Light Rain
4:53 PM 82.0 °F 89.4 °F 75.9 °F 82% 30.03 in 10.0 mi Calm Calm - 0.04 in   Mostly Cloudy
5:53 PM 86.0 °F 93.8 °F 73.9 °F 67% 30.01 in 10.0 mi Calm Calm - N/A   Clear
6:53 PM 84.9 °F 94.1 °F 75.9 °F 74% 30.04 in 10.0 mi Calm Calm - N/A   Clear
7:53 PM 82.9 °F 90.2 °F 75.0 °F 77% 30.04 in 10.0 mi SE 4.6 mph - N/A   Clear
8:53 PM 81.0 °F 87.3 °F 75.9 °F 85% 30.06 in 10.0 mi SE 4.6 mph - N/A   Partly Cloudy
9:53 PM 79.0 °F - 75.0 °F 88% 30.07 in 10.0 mi Calm Calm - N/A   Clear
10:53 PM 78.1 °F - 73.9 °F 87% 30.07 in 10.0 mi Calm Calm - N/A   Clear
11:53 PM 77.0 °F - 73.9 °F 90% 30.06 in 10.0 mi Calm Calm - N/A   Clear